[[{"header":{"parameterUnit":"m.s-1","parameterCategory":1,"la1":30.2991,"la2":30.254,"lo1":-89.0895,"lo2":-89.0444,"dy":0.0017,"dx":0.0017,"nx":28,"ny":28,"refTime":"2025-03-01T03:00:00:Z","depth":0,"parameterNumber":2,"parameterNumberName":"U-component_of_WINDS"},"data":[0,0,0,0,0,0,0,0,0,0,0,0,0,0,0,0,0,0,0,0,0,0,0,0,0,0,0,0,0,0,0,0,0,0,0,0,0,0,0,0,0,0,0,0,0,0,0,0,0,0,0,0,0,0,0,0,0,0,0.3564,0.3565,0,0.3641,0.3642,0.3643,0.368,0.368,0.368,0.368,0.3759,0.3761,0.3763,0,0,0,0,0,0,0,0,0,0,0,0,0,0.3449,0.3451,0.3564,0.3565,0.3566,0.3641,0.3642,0.3643,0.368,0.368,0.368,0.368,0.3758,0.3761,0.3763,0,0,0,0,0,0,0,0,0,0,0,0,0,0.351,0.3452,0.3564,0.3593,0.3597,0.3641,0.3642,0.3643,0.368,0.368,0.368,0.368,0.3757,0.376,0.3764,0.3784,0,0,0.3773,0.3775,0,0,0,0,0,0,0,0,0.3506,0.3514,0.3588,0.3591,0.3595,0.3651,0.363,0.369,0.368,0.3648,0.368,0.368,0.3723,0.3729,0.3743,0.3788,0.3791,0.3774,0.3776,0.3777,0.3778,0,0,0,0,0,0,0,0.3502,0.3511,0.3594,0.3589,0.3593,0.3603,0.3611,0.3642,0.3685,0.3651,0.3654,0.3663,0.3725,0.374,0.3746,0.3792,0.3774,0.3776,0.3778,0.378,0.3857,0.3857,0,0,0,0,0,0,0.3493,0.3507,0.3592,0.3597,0.355,0.3605,0.3615,0.3633,0.3685,0.3692,0.3663,0.3664,0.3735,0.3742,0.3749,0.3776,0.3777,0.378,0.3782,0.3857,0.3857,0.3857,0,0,0,0,0,0,0.349,0.35,0.3589,0.3553,0.3565,0.3607,0.3627,0.3634,0.365,0.3693,0.3701,0.367,0.3735,0.3744,0.3775,0.3779,0.3781,0.3784,0.3857,0.3857,0.3857,0.3831,0,0,0,0,0,0,0.3487,0.3499,0.3507,0.3553,0.3566,0.3614,0.3628,0.3636,0.3655,0.3658,0.3703,0.371,0.3736,0.377,0.3778,0.3784,0.3787,0.3857,0.3857,0.3857,0.3832,0.383,0.3829,0,0,0,0,0,0.3483,0.3496,0.3507,0.3517,0.3577,0.3614,0.3622,0.3651,0.3655,0.3664,0.3692,0.3709,0.3777,0.3773,0.3782,0.3789,0.3857,0.3857,0.3857,0.3832,0.383,0.3829,0,0,0,0,0,0,0.345,0.3503,0.3515,0.3544,0.3574,0.362,0.3632,0.3648,0.3678,0.3679,0.3714,0.3724,0.3752,0.3773,0.3767,0.3812,0.3819,0.3821,0.3796,0.3795,0.3794,0.3788,0.3789,0,0,0,0,0,0.3446,0.3471,0.3516,0.3537,0.3552,0.3589,0.3606,0.3626,0.3658,0.3671,0.3701,0.3732,0.3761,0.3779,0.3808,0.3835,0.3845,0.3844,0.3843,0.3842,0.3843,0.386,0.386,0.3859,0.3859,0.3859,0,0,0.3438,0.347,0.3484,0.3531,0.3557,0.3582,0.3599,0.3625,0.3645,0.3675,0.3706,0.373,0.3766,0.3795,0.381,0.3815,0.3846,0.3842,0.3841,0.3843,0.386,0.386,0.386,0.3859,0.3859,0.3859,0,0,0.3437,0.3464,0.3485,0.351,0.3549,0.3574,0.3578,0.3622,0.3639,0.367,0.3694,0.3717,0.3766,0.3792,0.3811,0.382,0.3837,0.3828,0.3822,0.3837,0.3837,0.3838,0.3841,0.3842,0.383,0.383,0.383,0,0.3423,0.3462,0.3493,0.3518,0.3538,0.3567,0.3589,0.3612,0.3658,0.3671,0.3676,0.3738,0.3765,0.38,0.3803,0.3817,0.3824,0.3823,0.3835,0.3835,0.3836,0.384,0.3841,0.3828,0.3829,0.3829,0.3829,0,0.3443,0.3469,0.3482,0.3525,0.3547,0.357,0.3605,0.3623,0.3641,0.3666,0.3698,0.3731,0.3767,0.3777,0.3795,0.3816,0.3818,0.3828,0.3836,0.3834,0.3839,0.384,0.3827,0.3827,0.3827,0.3828,0,0,0.3423,0.3484,0.3488,0.3509,0.3553,0.3575,0.3599,0.3635,0.365,0.3681,0.3703,0.3743,0.3753,0.3775,0.3796,0.381,0.3816,0.3819,0.382,0.3817,0.3841,0.3833,0.3834,0.3827,0.3827,0.3827,0.3838,0,0.3428,0.3474,0.3503,0.3536,0.3562,0.359,0.3611,0.3641,0.3665,0.369,0.3716,0.3744,0.3755,0.3769,0.3783,0.3812,0.3821,0.3811,0.3848,0.3848,0.3838,0.3836,0.3828,0.3836,0.3839,0.384,0.384,0,0.3441,0.3471,0.3507,0.355,0.3562,0.3581,0.3616,0.3639,0.3674,0.369,0.3715,0.3736,0.3764,0.3769,0.3808,0.3801,0.3817,0.3833,0.3834,0.3839,0.3844,0.3841,0.3839,0.384,0.3843,0.3843,0.3842,0,0.3423,0.3473,0.3501,0.3518,0.3568,0.3581,0.3603,0.3637,0.3657,0.3688,0.3701,0.3735,0.3753,0.3778,0.3809,0.381,0.3844,0.3852,0.3859,0.3858,0.3865,0.3864,0.3865,0.3875,0.3875,0.3875,0.3875,0,0.3426,0.3447,0.3494,0.3512,0.3536,0.357,0.3593,0.3617,0.3648,0.3671,0.3697,0.3718,0.3756,0.3782,0.3806,0.3834,0.3842,0.3856,0.3862,0.3854,0.3852,0.3865,0.3866,0.3875,0.3875,0.3875,0.3875,0,0.3411,0.3443,0.3476,0.3521,0.3533,0.3549,0.3588,0.3606,0.3631,0.366,0.3668,0.3708,0.3739,0.3772,0.3814,0.383,0.3858,0.3866,0.3846,0.385,0.3855,0.3854,0.3865,0.3869,0.3875,0.3875,0.3875,0,0.3411,0.3428,0.3475,0.3492,0.3513,0.354,0.3561,0.3594,0.3614,0.3656,0.3669,0.3702,0.3731,0.378,0.3813,0.3846,0.3855,0.3857,0.386,0.3852,0.3856,0.3854,0.3857,0.3856,0.3855,0.3855,0.3855,0,0.3407,0.3422,0.3451,0.3485,0.3509,0.3537,0.3566,0.3579,0.3618,0.364,0.3672,0.3694,0.3738,0.3772,0.3808,0.3831,0.385,0.3854,0.3857,0.3849,0.3837,0.3844,0.3843,0.3853,0.3853,0.3854,0.3854,0.3854,0.34,0.3416,0.3452,0.3483,0.3509,0.3536,0.3555,0.3583,0.3611,0.3649,0.3667,0.37,0.3735,0.3787,0.3809,0.3836,0.3841,0.3845,0.3847,0.3847,0.3846,0.3832,0.3842,0.3842,0.3843,0.3843,0.3843,0,0.3398,0.3423,0.3451,0.3491,0.3516,0.3531,0.3565,0.3584,0.3613,0.3644,0.3672,0.371,0.3742,0.3777,0.3812,0.3826,0.3836,0.3834,0.3834,0.3839,0.3839,0.3833,0.3826,0.3826,0.3826,0.3826,0.3826,0.3826,0.34,0.3429,0.3449,0.3491,0.3516,0.3548,0.3566,0.3591,0.3616,0.3658,0.3685,0.3708,0.3741,0.3778,0.3808,0.3818,0.383,0.3826,0.3838,0.3837,0.3839,0.384,0.3834,0.3828,0.3828,0.3836,0.3836,0.3836]},{"header":{"parameterUnit":"m.s-1","parameterCategory":1,"la1":30.2991,"la2":30.254,"lo1":-89.0895,"lo2":-89.0444,"dy":0.0017,"dx":0.0017,"nx":28,"ny":28,"refTime":"2025-03-01T03:00:00:Z","depth":0,"parameterNumber":3,"parameterNumberName":"V-component_of_WINDS"},"data":[0,0,0,0,0,0,0,0,0,0,0,0,0,0,0,0,0,0,0,0,0,0,0,0,0,0,0,0,0,0,0,0,0,0,0,0,0,0,0,0,0,0,0,0,0,0,0,0,0,0,0,0,0,0,0,0,0,0,1.7563,1.7563,0,1.7489,1.7488,1.7487,1.7452,1.7452,1.7452,1.7452,1.7373,1.7371,1.7369,0,0,0,0,0,0,0,0,0,0,0,0,0,1.7674,1.7672,1.7563,1.7563,1.7562,1.7489,1.7488,1.7487,1.7452,1.7452,1.7452,1.7452,1.7374,1.7371,1.7369,0,0,0,0,0,0,0,0,0,0,0,0,0,1.7615,1.7671,1.7564,1.7536,1.7532,1.7489,1.7488,1.7487,1.7452,1.7452,1.7452,1.7453,1.7375,1.7371,1.7368,1.7346,0,0,1.7358,1.7357,0,0,0,0,0,0,0,0,1.7619,1.7611,1.7541,1.7537,1.7534,1.748,1.7498,1.744,1.7452,1.7483,1.7452,1.7453,1.7408,1.7402,1.7388,1.7343,1.7339,1.7358,1.7356,1.7355,1.7354,0,0,0,0,0,0,0,1.7623,1.7614,1.7534,1.754,1.7535,1.7526,1.7518,1.7487,1.7446,1.748,1.7477,1.7469,1.7406,1.7391,1.7386,1.7338,1.7358,1.7355,1.7353,1.7352,1.7272,1.7272,0,0,0,0,0,0,1.7632,1.7618,1.7536,1.7532,1.7577,1.7524,1.7515,1.7497,1.7446,1.7438,1.7469,1.7468,1.7397,1.739,1.7383,1.7355,1.7355,1.7352,1.735,1.7272,1.7272,1.7272,0,0,0,0,0,0,1.7634,1.7625,1.7539,1.7574,1.7562,1.7522,1.7502,1.7496,1.748,1.7438,1.743,1.7461,1.7397,1.7388,1.7356,1.7352,1.735,1.7347,1.7273,1.7272,1.7272,1.7298,0,0,0,0,0,0,1.7638,1.7626,1.7617,1.7574,1.7561,1.7514,1.7502,1.7494,1.7475,1.7473,1.7428,1.7421,1.7396,1.7361,1.7353,1.7347,1.7345,1.7273,1.7273,1.7272,1.7297,1.7299,1.73,0,0,0,0,0,1.7642,1.7627,1.7617,1.7608,1.755,1.7514,1.7506,1.7479,1.7475,1.7466,1.7439,1.7423,1.7354,1.7358,1.7349,1.7342,1.7273,1.7273,1.7272,1.7297,1.7298,1.73,0,0,0,0,0,0,1.7669,1.762,1.7609,1.758,1.7552,1.7508,1.7496,1.7481,1.7452,1.7451,1.7417,1.7407,1.7379,1.7357,1.7363,1.7319,1.7312,1.731,1.7334,1.7335,1.7336,1.7342,1.7342,0,0,0,0,0,1.7672,1.7648,1.7606,1.7585,1.7571,1.7536,1.752,1.7501,1.747,1.7457,1.7428,1.7397,1.7369,1.7351,1.7322,1.7294,1.7284,1.7285,1.7286,1.7287,1.7286,1.727,1.727,1.7271,1.7271,1.7271,0,0,1.7677,1.7648,1.7634,1.759,1.7565,1.7541,1.7526,1.7501,1.7482,1.7453,1.7422,1.74,1.7363,1.7334,1.732,1.7315,1.7283,1.7287,1.7288,1.7286,1.727,1.727,1.727,1.7271,1.7271,1.7271,0,0,1.7674,1.7649,1.7629,1.7606,1.757,1.7547,1.7543,1.7502,1.7486,1.7455,1.7433,1.741,1.7362,1.7337,1.7318,1.7309,1.7292,1.73,1.7306,1.7292,1.7292,1.7291,1.7288,1.7288,1.7299,1.7299,1.7299,0,1.7685,1.7648,1.762,1.7597,1.7578,1.7552,1.7531,1.751,1.7466,1.7453,1.7449,1.7389,1.7362,1.7328,1.7326,1.7311,1.7305,1.7305,1.7294,1.7294,1.7293,1.729,1.7288,1.73,1.73,1.73,1.7299,0,1.7663,1.7638,1.7626,1.7586,1.7566,1.7544,1.7513,1.7495,1.7479,1.7457,1.7426,1.7394,1.7359,1.7349,1.7332,1.7312,1.7311,1.7301,1.7293,1.7295,1.7291,1.7289,1.7302,1.7301,1.7301,1.73,0,0,1.7674,1.7621,1.7617,1.7599,1.7559,1.7538,1.7515,1.7483,1.7469,1.744,1.742,1.738,1.7371,1.735,1.733,1.7318,1.7313,1.7309,1.7308,1.7311,1.729,1.7298,1.7296,1.7302,1.7302,1.7302,1.7293,0,1.7666,1.7624,1.76,1.7568,1.7545,1.7521,1.7501,1.7474,1.7453,1.743,1.7406,1.7379,1.7369,1.7356,1.7343,1.7316,1.7308,1.7317,1.7283,1.7282,1.7293,1.7294,1.7302,1.7295,1.7291,1.7291,1.7291,0,1.765,1.7624,1.7591,1.7554,1.7543,1.7526,1.7495,1.7473,1.7442,1.7427,1.7405,1.7385,1.736,1.7355,1.732,1.7326,1.7311,1.7296,1.7295,1.7291,1.7286,1.729,1.7292,1.7292,1.7288,1.7288,1.7288,0,1.7662,1.7618,1.7593,1.7578,1.7535,1.7524,1.7505,1.7474,1.7456,1.7429,1.7417,1.7386,1.737,1.7346,1.7319,1.7318,1.7287,1.7279,1.7274,1.7274,1.7267,1.7268,1.7268,1.7258,1.7258,1.7258,1.7258,0,1.7656,1.7636,1.7598,1.7582,1.756,1.7532,1.7511,1.749,1.7463,1.7443,1.742,1.7401,1.7366,1.7343,1.7322,1.7296,1.7288,1.7276,1.727,1.7278,1.728,1.7267,1.7267,1.7258,1.7258,1.7258,1.7258,0,1.7665,1.7638,1.761,1.7572,1.7562,1.7547,1.7514,1.7498,1.7477,1.7452,1.7444,1.741,1.7381,1.7352,1.7314,1.7299,1.7275,1.7267,1.7285,1.7282,1.7279,1.7279,1.727,1.7267,1.726,1.726,1.726,0,1.7662,1.7647,1.7609,1.7594,1.7576,1.7553,1.7536,1.7508,1.749,1.7455,1.7443,1.7414,1.7388,1.7345,1.7316,1.7286,1.7278,1.7277,1.7273,1.7282,1.7278,1.7279,1.7278,1.7278,1.7278,1.7278,1.7278,0,1.7661,1.7649,1.7625,1.7598,1.7578,1.7554,1.7529,1.7519,1.7486,1.7467,1.7439,1.742,1.7382,1.7353,1.732,1.73,1.7284,1.728,1.7277,1.7284,1.7296,1.729,1.7289,1.728,1.728,1.7279,1.7279,1.7279,1.7664,1.765,1.7621,1.7596,1.7575,1.7553,1.7536,1.7514,1.749,1.7458,1.7442,1.7414,1.7384,1.734,1.732,1.7297,1.7293,1.7288,1.7287,1.7287,1.7289,1.73,1.7291,1.7291,1.7291,1.7291,1.7291,0,1.7662,1.7643,1.762,1.7587,1.7567,1.7555,1.7528,1.7512,1.7488,1.7462,1.7438,1.7406,1.7379,1.7349,1.7319,1.7307,1.7298,1.73,1.73,1.7296,1.7294,1.73,1.7307,1.7307,1.7307,1.7307,1.7307,1.7307,1.7658,1.7634,1.7619,1.7585,1.7565,1.7539,1.7524,1.7504,1.7483,1.7449,1.7427,1.7408,1.738,1.7349,1.7323,1.7315,1.7305,1.7308,1.7298,1.7297,1.7296,1.7295,1.73,1.7306,1.7306,1.7301,1.7301,1.7301]}]]